Flag for Poland Weather past 2 weeks in Słupsk, Poland

Now
53 °F

Passing clouds.


Feels Like: 50 °F
Forecast: 46 / 64 °F
Wind: 10 mph from West

Location: Leba

Current Time: May 27, 2015 at 8:23:39 PM

Latest Report: May 27, 2015 at 7:00 PM


Visibility: 13 mi

Pressure: 29.99 "Hg

Humidity: 73%

Dew point: 45 °F

Location of SłupskLocation

Historic Weather in Słupsk — Graph

°F

Słupsk temperature yesterday

Maximum temperature yesterday: 56 °F (at 3:00 PM)
Minimum temperature yesterday: 51 °F (at 5:00 AM)
Average temperature yesterday: 53 °F

Past Weeks' High & Low Weather Summary

 TemperatureHumidityPressure
High71 °F (May 12, 7:00 PM)100% (May 21, 4:00 AM)30.29 "Hg (May 21, 4:00 AM)
Low37 °F (May 22, 5:00 AM)37% (May 15, 6:00 PM)29.59 "Hg (May 19, 10:00 AM)
Average51 °F78%29.96 "Hg
* Reported May 12 7:00 PM — May 27 7:00 PM, Słupsk, Weather by CustomWeather, © 2015

Note: Actual official high and low records may vary slightly from our data, if they occured in-between our weather recording intervals... More about our weather records

Advertising

Słupsk weather history for previous 24 hours

 ConditionsComfort  
Time TempWeatherWind HumidityBarometerVisibility
7:00 PM
Wed, May 27
53 °FPassing clouds.10 mph73%29.99 "Hg12 mi
6:00 PM54 °FScattered clouds.10 mph74%29.99 "Hg12 mi
5:00 PM53 °FPartly sunny.10 mph77%29.99 "Hg12 mi
4:00 PM55 °FScattered clouds.9 mph72%29.99 "Hg12 mi
3:00 PM54 °FOvercast.9 mph73%30.00 "Hg12 mi
2:00 PM55 °FPartly sunny.9 mph71%30.00 "Hg12 mi
1:00 PM54 °FPartly sunny.9 mph64%30.01 "Hg12 mi
12:00 PM53 °FOvercast.10 mph70%30.00 "Hg12 mi
11:00 AM54 °FOvercast.8 mph63%30.00 "Hg12 mi
10:00 AM53 °FOvercast.7 mph62%30.00 "Hg12 mi
9:00 AMN/APassing clouds.21 mphN/AN/A2 mi
8:00 AM51 °FPartly sunny.8 mph74%29.98 "Hg12 mi
7:00 AM51 °FPassing clouds.7 mph75%29.97 "Hg12 mi
6:00 AM51 °FPassing clouds.7 mph75%29.97 "Hg12 mi
5:00 AM50 °FSunny.6 mph81%29.96 "Hg12 mi
4:00 AM51 °FClear.7 mph82%29.95 "Hg12 mi
3:00 AM51 °FClear.5 mph82%29.96 "Hg12 mi
2:00 AM51 °FClear.6 mph82%29.95 "Hg12 mi
1:00 AM50 °FClear.6 mph87%29.94 "Hg12 mi
12:00 AM50 °FClear.7 mph84%29.96 "Hg12 mi
10:00 PM
Tue, May 26
51 °FPassing clouds.7 mph79%29.97 "Hg12 mi
9:00 PM51 °FPassing clouds.8 mph75%29.97 "Hg12 mi
8:00 PM53 °FScattered clouds.8 mph70%29.96 "Hg12 mi
Weather by CustomWeather, © 2015

See weather overviewHow to use our weather pages